Regional Weather Roundup
Issued by NWS

Home | Current Version | Previous Version | Text Only | Print | Product List | Glossary On
Versions: 1 2 3 4 5 6 7 8 9 10 11 12 13 14 15 16 17 18 19 20 21 22 23 24 25 26 27 28 29 30 31 32 33 34 35 36 37 38 39 40 41 42 43 44 45 46 47 48 49 50
000
ASUS46 KSEW 061110
RWRWA

WASHINGTON REGIONAL WEATHER ROUNDUP
NATIONAL WEATHER SERVICE SEATTLE WA
400 AM PDT WED MAY 06 2015

NOTE:"FAIR" INDICATES FEW OR NO CLOUDS BELOW 12,000 FEET WITH NO
SIGNIFICANT WEATHER AND/OR OBSTRUCTIONS TO VISIBILITY.

WAZ505-507>509-061200-
SEATTLE, TACOMA, EVERETT, AND VICINITY

CITY           SKY/WX    TMP DP  RH WIND       PRES   REMARKS
EVERETT        MOCLDY    44  39  82 CALM      30.10S
BOEING FIELD   CLOUDY    49  43  80 CALM      30.11S
RENTON         CLOUDY    43  41  93 CALM      30.11S
SEATAC AIRPORT CLOUDY    46  43  89 NE3       30.11R
JBLM-MCCHORD   FOG       39  39 100 SE2       30.10S VSB 1/2
PUYALLUP       CLOUDY    45  45 100 CALM      30.10S
BREMERTON      MOCLDY    36  36 100 CALM      30.13F
JBLM-FT LEWIS  FOG       41  41 100 SE5       30.10S VSB 1
TACOMA NARROWS MOCLDY    44  43  96 CALM      30.11S FOG
$$

WAZ001-503-506-510-514-515-061200-
NORTH INTERIOR

CITY           SKY/WX    TMP DP  RH WIND       PRES   REMARKS
BELLINGHAM     PTCLDY    42  41  96 CALM      30.10R
FRIDAY HARBOR  CLEAR     37  36  96 CALM      30.11S
EASTSOUND      CLEAR     45  45 100 MISG      30.08S
PORT ANGELES   CLEAR     43  38  82 W13       30.11S
NAS WHIDBEY    MOCLDY    48  43  82 CALM      30.11F
ARLINGTON      CLOUDY    39  34  81 N5        30.13R VSB 3/4
BURLINGTON     MOCLDY    41  41 100 CALM      30.11S
$$

WAZ020-022-039-040-504-511-512-061200-
SOUTHWEST INTERIOR

CITY           SKY/WX    TMP DP  RH WIND       PRES   REMARKS
SHELTON        FOG       37  37 100 CALM      30.09S VSB 3/4
OLYMPIA        FOG       40  40 100 S3        30.11S VSB 1/4
CHEHALIS       CLOUDY    46  46 100 CALM      30.11S
KELSO          CLOUDY    46  43  87 CALM      30.14F
VANCOUVER      CLOUDY    47  43  86 CALM      30.11R
SCAPPOOSE, OR  CLOUDY    46  43  89 CALM      30.10S
PORTLAND, OR   CLOUDY    47  44  90 CALM      30.12R
$$

WAZ021-516-517-061200-
WASHINGTON COAST

CITY           SKY/WX    TMP DP  RH WIND       PRES   REMARKS
FORKS          CLEAR     37  36  96 CALM      30.12S
HOQUIAM        CLEAR     40  39  97 NE3       30.11S
ASTORIA, OR    MOCLDY    46  44  93 E3        30.10S
$$

WAZ019-023-024-040-518-519-061200-
CASCADE MOUNTAINS AND COLUMBIA GORGE

CITY           SKY/WX    TMP DP  RH WIND       PRES   REMARKS
TROUTDALE, OR  LGT RAIN  48  42  80 CALM      30.10R
THE DALLES, OR MOCLDY    48  37  65 SW8       30.05F
$$

WAZ026-027-041>044-520-521-061200-
EAST SLOPES

CITY           SKY/WX    TMP DP  RH WIND       PRES   REMARKS
OMAK           CLEAR     37  28  70 NW6       29.99S
WENATCHEE      PTCLDY    44  29  55 NW9       30.00R
ELLENSBURG     CLEAR     43  32  65 NW14      29.98S
YAKIMA         MOCLDY    37  29  72 CALM      30.00S
$$

WAZ028-034-035-061200-
COLUMBIA BASIN

CITY           SKY/WX    TMP DP  RH WIND       PRES   REMARKS
EPHRATA        CLEAR     44  25  47 VRB3      29.95S
MOSES LAKE     CLEAR     42  26  53 W9        29.97R
PASCO          CLEAR     43  30  60 W3        30.01R
HERMISTON, OR  PTCLDY    41  33  73 CALM      30.01S
$$

WAZ036>038-061200-
NORTHEAST WASHINGTON

CITY           SKY/WX    TMP DP  RH WIND       PRES   REMARKS
SPOKANE GEIGER PTCLDY    43  25  49 SW9       29.93R
SPOKANE FELTS  CLEAR     40  30  67 CALM      29.94S
FAIRCHILD AFB  CLEAR     38  25  60 S6        29.93R
COEURDALENE,ID CLEAR     37  28  70 CALM      29.95S
DEER PARK      PTCLDY    30  27  88 N5        29.94R
$$

WAZ029>033-061200-
SOUTHEAST WASHINGTON

CITY           SKY/WX    TMP DP  RH WIND       PRES   REMARKS
PULLMAN        CLEAR     36  27  69 CALM      29.98R
LEWISTON, ID   CLEAR     43  28  55 SW5       29.97R
WALLA WALLA    CLEAR     45  33  63 S9        30.00S
PENDLETON, OR  PTCLDY    42  31  64 SW9       30.00R
$$


USA.gov is the U.S. government's official web portal to all federal, state and local government web resources and services.